Change the Weather History Date:

Tuesday, November 5, 2013

  Actual Average Record
Temperature  
Mean Temperature 46 °F -  
Max Temperature 50 °F 50 °F 59 °F (1996)
Min Temperature 43 °F 40 °F 35 °F (2012)
Degree Days  
Heating Degree Days 18    
Moisture  
Dew Point 45 °F    
Average Humidity 85    
Maximum Humidity 94    
Minimum Humidity 71    
Precipitation  
Precipitation 0.08 in 0.13 in - ()
Sea Level Pressure  
Sea Level Pressure 29.39 in    
Wind  
Wind Speed 14 mph ()    
Max Wind Speed 30 mph    
Max Gust Speed 34 mph    
Visibility 6.4 miles    
Events Rain    
Averages and records for this station are not official NWS values.
T = Trace of Precipitation, MM = Missing Value Source: Averaged Metar Reports

Daily Weather History Graph

Daily Weather History Graph

Search for Another Location

Airport or City:

Trip Planner

Search our weather history database for the weather conditions in past years. The results will help you decide how hot, cold, wet, or windy it might be!

Date:

Astronomy

Nov. 05, 2013 Rise Set
Actual Time 7:40 AM GMT 4:57 PM GMT
Civil Twilight 7:03 AM GMT 5:34 PM GMT
Nautical Twilight 6:22 AM GMT 6:15 PM GMT
Astronomical Twilight 5:42 AM GMT 6:55 PM GMT
Moon 9:52 AM GMT (11/5) 6:33 PM GMT (11/5)
Length of Visible Light 10h 31m
Length of Day
9h 17m
Waxing Crescent, 5% of the Moon is Illuminated
Nov 5
Waxing Crescent
Nov 10
First Quarter
Nov 17
Full
Nov 25
Last Quarter
Dec 3
New

Hourly Weather History & Observations

Time (GMT) Temp. Windchill Dew Point Humidity Pressure Visibility Wind Dir Wind Speed Gust Speed Precip Events Conditions
12:00 AM 51.8 °F - 48.2 °F 88% 29.33 in 6.2 mi WSW 12.7 mph - N/A   Mostly Cloudy
12:30 AM 51.8 °F - 48.2 °F 88% 29.30 in 6.2 mi WSW 13.8 mph - N/A Rain Light Rain
1:00 AM 51.8 °F - 50.0 °F 94% 29.30 in 6.2 mi WSW 13.8 mph - N/A Rain Light Rain
1:30 AM 51.8 °F - 50.0 °F 94% 29.27 in 6.2 mi SW 12.7 mph - N/A Rain Light Rain
2:00 AM 51.8 °F - 50.0 °F 94% 29.27 in 6.2 mi SW 23.0 mph - N/A Rain Light Rain
2:30 AM 50.0 °F - 48.2 °F 94% 29.27 in 6.2 mi WSW 21.9 mph - N/A Rain Light Rain
3:00 AM 50.0 °F - 48.2 °F 94% 29.27 in 6.2 mi WSW 15.0 mph - N/A   Mostly Cloudy
3:30 AM 50.0 °F - 46.4 °F 87% 29.27 in 6.2 mi WSW 20.7 mph - N/A   Mostly Cloudy
4:00 AM 50.0 °F - 46.4 °F 87% 29.27 in 6.2 mi WSW 24.2 mph - N/A Rain Light Rain
4:30 AM 50.0 °F - 46.4 °F 87% 29.30 in 6.2 mi West 16.1 mph - N/A   Mostly Cloudy
5:00 AM 50.0 °F - 46.4 °F 87% 29.30 in 6.2 mi West 20.7 mph - N/A   Mostly Cloudy
5:30 AM 50.0 °F - 44.6 °F 82% 29.30 in 6.2 mi West 16.1 mph - N/A   Mostly Cloudy
6:00 AM 50 °F - 44 °F 73% 29.32 in 11 mi West 15.7 mph - -   Partly Cloudy
6:00 AM 50.0 °F - 44.6 °F 82% 29.30 in 6.2 mi West 16.1 mph - N/A   Mostly Cloudy
6:30 AM 50.0 °F - 42.8 °F 76% 29.33 in 6.2 mi West 16.1 mph - N/A   Mostly Cloudy
7:00 AM 50.0 °F - 41.0 °F 71% 29.33 in 6.2 mi West 16.1 mph - N/A   Mostly Cloudy
7:30 AM 50.0 °F - 42.8 °F 76% 29.36 in 6.2 mi West 11.5 mph - N/A   Mostly Cloudy
8:00 AM 50.0 °F - 42.8 °F 76% 29.36 in 6.2 mi West 16.1 mph - N/A Rain Light Rain
8:30 AM 50.0 °F - 44.6 °F 82% 29.39 in 6.2 mi WSW 13.8 mph - N/A   Light Drizzle
9:00 AM 48.2 °F - 44.6 °F 87% 29.39 in 6.2 mi West 13.8 mph - N/A   Mostly Cloudy
9:30 AM 46.4 °F 39.5 °F 42.8 °F 87% 29.39 in 6.2 mi West 17.3 mph 29.9 mph N/A   Mostly Cloudy
10:00 AM 48.2 °F - 44.6 °F 87% 29.39 in 6.2 mi WSW 13.8 mph - N/A   Mostly Cloudy
10:30 AM 50.0 °F - 44.6 °F 82% 29.42 in 6.2 mi West 15.0 mph - N/A   Mostly Cloudy
11:00 AM 50.0 °F - 44.6 °F 82% 29.42 in 6.2 mi West 20.7 mph - N/A   Mostly Cloudy
11:30 AM 50.0 °F - 42.8 °F 76% 29.42 in 6.2 mi West 13.8 mph - N/A   Mostly Cloudy
12:00 PM 49 °F - 44 °F 76% 29.44 in 12 mi WSW 13.4 mph - - Rain Light Rain Showers
12:00 PM 50.0 °F - 44.6 °F 82% 29.42 in 6.2 mi WSW 13.8 mph - N/A   Mostly Cloudy
12:30 PM 48.2 °F - 44.6 °F 87% 29.44 in 5.0 mi West 29.9 mph - N/A Rain Light Rain Showers
1:00 PM 48.2 °F - 44.6 °F 87% 29.42 in 6.2 mi WSW 11.5 mph - N/A   Mostly Cloudy
1:30 PM 50.0 °F - 44.6 °F 82% 29.44 in 6.2 mi WSW 13.8 mph - N/A   Mostly Cloudy
2:00 PM 48.2 °F - 41.0 °F 76% 29.44 in 6.2 mi West 18.4 mph - N/A   Mostly Cloudy
2:30 PM 48.2 °F - 42.8 °F 82% 29.44 in 6.2 mi West 17.3 mph - N/A   Mostly Cloudy
3:00 PM 50.0 °F - 42.8 °F 76% 29.44 in 6.2 mi West 12.7 mph - N/A   Mostly Cloudy
3:30 PM 48.2 °F - 42.8 °F 82% 29.44 in 6.2 mi WSW 17.3 mph - N/A   Mostly Cloudy
4:00 PM 48.2 °F - 44.6 °F 87% 29.42 in 6.2 mi SW 12.7 mph - N/A   Mostly Cloudy
4:30 PM 48.2 °F - 42.8 °F 82% 29.44 in 5.0 mi West 18.4 mph 34.5 mph N/A   Mostly Cloudy
5:00 PM 48.2 °F - 42.8 °F 82% 29.44 in 4.3 mi WSW 11.5 mph - N/A Rain Light Rain Showers
5:30 PM 46.4 °F 41.5 °F 44.6 °F 93% 29.44 in 6.2 mi SW 10.4 mph - N/A   Mostly Cloudy
6:00 PM 48 °F - 44 °F 81% 29.47 in 11 mi SW 8.9 mph - - Rain Light Rain Showers
6:00 PM 48.2 °F - 44.6 °F 87% 29.44 in 6.2 mi SW 9.2 mph - N/A   Mostly Cloudy
6:30 PM 48.2 °F - 44.6 °F 87% 29.47 in 5.0 mi WSW 20.7 mph - N/A Rain Light Rain Showers
7:00 PM 48.2 °F - 44.6 °F 87% 29.44 in 6.2 mi WSW 12.7 mph - N/A   Mostly Cloudy
7:30 PM 48.2 °F - 44.6 °F 87% 29.44 in 6.2 mi WSW 13.8 mph - N/A Rain Light Rain
8:00 PM 48.2 °F - 44.6 °F 87% 29.44 in 6.2 mi WSW 11.5 mph - N/A   Mostly Cloudy
8:30 PM 48.2 °F - 44.6 °F 87% 29.44 in 6.2 mi WSW 12.7 mph - N/A   Mostly Cloudy
9:00 PM 48.2 °F - 44.6 °F 87% 29.44 in 6.2 mi West 8.1 mph - N/A   Mostly Cloudy
9:30 PM 48.2 °F - 44.6 °F 87% 29.44 in 6.2 mi WSW 11.5 mph - N/A   Mostly Cloudy
10:00 PM 48.2 °F - 44.6 °F 87% 29.44 in 6.2 mi West 10.4 mph - N/A Rain Light Rain
10:30 PM 48.2 °F - 44.6 °F 87% 29.47 in 6.2 mi WSW 9.2 mph - N/A Rain Light Rain
11:00 PM 48.2 °F - 44.6 °F 87% 29.44 in 6.2 mi SW 12.7 mph - N/A Rain Light Rain
11:30 PM 48.2 °F - 44.6 °F 87% 29.44 in 6.2 mi SW 10.4 mph - N/A   Mostly Cloudy